Miscellaneous Local Product
Issued by NWS Hastings, NE

Home | Current Version | Previous Version | Text Only | Print | Product List | Glossary Off
Versions: 1 2 3 4 5 6 7 8 9 10 11 12 13 14 15 16 17 18 19 20 21 22 23 24 25 26 27 28 29 30 31 32 33 34 35 36 37 38 39 40 41 42 43 44 45 46 47 48 49 50

153
AXUS43 KGID 231202
MISGRI

GID CWA HOURLY WEATHER ROUNDUP
NATIONAL WEATHER SERVICE HASTINGS NE
700 AM CDT MON APR 23 2018

NOTE: "FAIR" INDICATES FEW OR NO CLOUDS BELOW 12,000 FEET WITH NO
SIGNIFICANT WEATHER AND/OR OBSTRUCTIONS TO VISIBILITY.

...SOUTH CENTRAL NEBRASKA...

CITY           SKY/WX    TMP DP  RH WIND       PRES   REMARKS
GRAND ISLAND   PTCLDY    39  35  86 NE6       30.19R WCI  35
KEARNEY        CLEAR     38  35  89 CALM      30.19R
HASTINGS       CLEAR     39  37  92 CALM      30.18R
ORD            CLEAR     32  30  92 CALM      30.18R
YORK             N/A     39  30  70 CALM      30.18S
AURORA         PTCLDY    41  29  63 E5        30.18R
LEXINGTON      MOCLDY    38  36  91 NW3       30.18S FOG
HOLDREGE       CLEAR     35  34  96 N3        30.18R
HEBRON         CLEAR     37  35  89 CALM      30.18R

...NEBRASKA PANHANDLE...

CITY           SKY/WX    TMP DP  RH WIND       PRES   REMARKS
CHADRON        CLEAR     38  35  89 SE3       30.08F
ALLIANCE       CLEAR     32  32 100 SE10      30.10S WCI  24
SCOTTSBLUFF    CLEAR     34  34 100 E8        30.10R WCI  27
SIDNEY         CLEAR     34  32  92 S6        30.11S WCI  29

...WESTERN AND NORTH CENTRAL NEBRASKA...

CITY           SKY/WX    TMP DP  RH WIND       PRES   REMARKS
VALENTINE      CLEAR     35  32  88 E3        30.15S
AINSWORTH      CLEAR     35  34  96 S6        30.17R WCI  30
ONEILL         CLEAR     44  36  74 S5        30.18S
BROKEN BOW     MOCLDY    35  32  88 CALM      30.17S
IMPERIAL       CLEAR     32  32 100 SE5       30.15S WCI  27
NORTH PLATTE   CLEAR     31  30  96 SE3       30.17R FOG
MCCOOK         CLEAR     32  32 100 W7        30.17S FOG     WCI  26

...EASTERN NEBRASKA...

CITY           SKY/WX    TMP DP  RH WIND       PRES   REMARKS
NORFOLK        CLEAR     34  31  88 CALM      30.19R
SO SIOUX CITY  CLEAR     35  34  96 NW5       30.20S WCI  31
TEKAMAH        CLEAR     33  32  96 N7        30.20R FOG     WCI  27
COLUMBUS       CLEAR     35  29  78 CALM      30.20R
ALBION         CLEAR     38  32  80 NW5       30.19S WCI  34
OMAHA EPPLEY   PTCLDY    38  30  73 N9        30.19R WCI  31
OFFUTT AFB     CLEAR     38  29  71 CALM      30.17R
MILLARD        CLEAR     42  32  68 NW3       30.18S
LINCOLN        PTCLDY    36  30  79 N5        30.19R WCI  32
NEBRASKA CITY  CLEAR     44  30  57 N5        30.17R
BEATRICE       PTCLDY    35  32  88 CALM      30.17S
FALLS CITY     CLEAR     43  30  60 NW6       30.15R

...NORTHERN KANSAS...

CITY           SKY/WX    TMP DP  RH WIND       PRES   REMARKS
GOODLAND       CLEAR     31  29  92 S5        30.15S WCI  26
HILL CITY      MOCLDY    39  37  92 W7        30.17S WCI  34
NORTON         SUNNY     36  34  93 W7        30.16S WCI  30
PHILLIPSBURG   CLEAR     41  37  87 W3        30.18R
SMITH CENTER   CLEAR     39  36  87 N6        30.18S WCI  35
BELOIT         CLEAR     39  36  87 CALM      30.16R
HAYS           CLEAR     41  38  89 NW7       30.18R
RUSSELL        CLEAR     45  42  89 N9        30.15S
CONCORDIA      CLEAR     42  36  79 CALM      30.16R
SALINA         CLEAR     42  39  89 NW8       30.15R
TOPEKA         CLOUDY    51  34  52 CALM      30.12R



USA.gov is the U.S. government's official web portal to all federal, state and local government web resources and services.